Wind_Speed
9 8 7 5 5 4 4 3 1 1 2 2 2 2 2 1 1 2 3 3 4 5 6 7 8 9 10 11 12 13 13 13 13 13 13 14 14 14 14 14 15 15 15 16 16 17 18 18 19
11 10 9 8 7 8 7 5 4 3 2 2 2 1 1 1 2 3 4 5 6 7 8 9 10 11 12 12 13 13 13 13 13 12 13 13 13 13 13 13 14 14 15 15 16 17 18 19 20
9 9 9 8 7 8 7 5 4 3 2 1 1 2 3 3 5 6 6 7 8 9 10 10 11 12 12 12 12 12 12 12 12 12 12 12 12 12 12 13 13 14 14 15 16 17 17 19 20
6 6 6 5 4 6 4 2 1 1 2 3 4 5 6 7 8 9 9 9 9 10 11 12 12 12 12 12 12 11 11 11 11 11 11 11 12 12 13 13 14 14 15 16 16 17 18 19 20
4 3 2 2 1 2 0 1 3 5 6 7 8 8 8 10 10 11 11 11 11 11 12 12 12 13 12 12 11 11 10 10 11 11 12 12 12 13 14 14 15 15 16 16 17 18 19 19 20
3 4 4 3 3 4 4 5 7 8 10 10 11 11 8 13 11 12 12 12 12 12 13 13 13 12 12 11 10 10 10 11 11 12 12 13 13 14 15 15 16 17 17 18 19 20 21 22 23
5 6 7 7 7 7 8 7 9 11 12 12 12 12 10 14 12 13 13 13 13 13 13 13 12 12 11 11 10 10 11 11 12 12 13 14 14 15 16 17 17 18 19 20 21 22 23 24 25
8 8 9 9 10 10 10 10 11 12 13 13 14 13 11 15 13 13 14 13 13 13 13 13 12 12 11 11 11 11 11 12 12 13 13 14 15 16 16 17 18 19 20 21 22 23 24 26 27
9 10 10 11 11 12 12 11 13 14 14 14 15 13 13 14 15 14 14 14 14 14 13 13 13 12 12 12 12 12 12 12 13 13 14 15 15 16 17 18 19 20 21 22 22 23 25 26 27
10 11 12 12 12 13 14 13 14 14 16 14 14 14 14 14 15 15 15 14 14 14 14 14 13 14 14 14 14 14 14 14 14 15 15 16 17 18 19 19 21 22 23 23 24 25 26 27 29
12 12 12 12 13 13 14 15 15 15 16 15 14 15 15 15 15 15 15 15 16 16 16 16 15 16 16 16 16 16 16 17 17 18 18 19 20 20 21 22 23 24 25 26 27 28 29 30 31
14 14 13 13 13 14 14 15 16 18 17 16 16 17 15 17 16 17 17 17 17 18 19 18 18 18 19 18 18 19 20 20 20 21 21 22 23 23 24 26 27 28 29 30 31 32 33 34 35
15 15 15 15 14 15 15 17 17 19 19 18 18 19 17 18 19 19 19 19 20 20 21 21 21 21 22 21 22 22 23 23 24 24 25 25 26 27 28 29 30 31 32 33 34 35 36 38 39
16 17 17 17 16 15 15 18 19 19 19 20 20 21 20 20 21 21 22 22 22 23 23 24 24 25 25 25 26 26 26 26 27 28 29 29 30 31 32 32 34 35 36 37 38 39 40 41 42
19 19 18 18 17 16 16 18 21 20 19 20 22 22 22 23 23 23 24 25 25 25 26 26 27 28 28 29 29 29 30 30 31 32 33 33 34 35 35 36 37 38 39 41 42 43 44 45 46
22 21 20 18 18 17 17 17 23 22 20 20 22 23 24 24 25 26 27 27 28 28 28 29 30 30 31 32 33 33 33 33 34 35 37 38 38 39 39 40 41 42 43 44 46 47 48 49 50
23 22 23 21 18 18 18 18 23 24 23 22 22 23 24 25 26 27 28 29 30 30 30 31 31 32 34 35 36 36 36 36 38 39 40 41 42 43 44 44 45 46 47 48 50 51 52 53 54
24 23 22 23 20 18 19 19 21 23 23 24 24 24 24 25 26 27 28 29 31 32 32 32 34 35 37 37 38 39 39 40 42 43 43 44 45 47 48 48 49 50 51 52 54 55 56 57 57
22 21 21 21 20 19 20 22 23 23 23 24 24 25 25 25 26 27 27 28 30 31 33 34 35 37 39 40 40 41 42 44 44 45 45 47 48 51 52 52 53 54 55 56 57 59 60 60 61
19 19 19 19 19 19 19 23 25 24 24 25 25 26 25 25 26 26 27 27 28 30 32 34 35 37 39 41 42 43 44 45 46 46 48 50 52 54 55 56 56 57 58 59 60 62 63 63 64
18 18 18 18 18 19 20 23 27 26 26 26 26 26 25 26 26 26 26 27 28 30 31 33 35 36 38 41 43 44 46 47 48 49 51 53 55 55 56 58 59 60 61 61 62 64 65 65 65
16 18 19 19 20 19 21 21 27 30 28 26 26 26 26 26 26 27 28 28 28 30 31 33 35 37 39 41 43 45 47 48 49 51 53 54 56 57 58 59 61 62 63 64 65 65 65 65 65
18 19 20 21 22 21 22 22 23 30 30 29 28 27 27 27 28 29 29 30 30 31 32 34 36 38 40 41 44 46 47 49 51 53 54 56 57 58 59 60 62 63 65 66 66 66 65 64 64
20 21 22 23 23 23 21 22 23 28 30 33 33 31 31 31 31 32 32 32 32 33 34 35 37 39 41 42 44 46 48 50 52 54 55 57 58 58 59 61 63 64 65 66 67 66 65 65 64
21 23 25 26 26 26 24 24 24 28 31 34 36 36 36 34 33 33 33 33 34 35 36 38 39 41 43 44 46 48 49 51 53 55 56 58 59 59 60 62 64 65 66 66 66 66 66 65 65
22 24 26 28 29 29 28 26 26 30 33 36 38 39 38 35 34 34 35 37 38 39 40 41 42 44 45 46 47 49 51 53 54 56 57 59 60 61 62 64 64 65 65 66 67 67 67 67 67
25 25 27 30 32 33 32 29 28 28 33 38 39 40 39 37 36 36 38 39 40 41 42 43 44 45 46 48 49 51 53 54 56 57 59 61 62 63 64 64 64 65 65 66 67 67 67 68 68
28 29 31 32 35 37 36 35 33 32 34 36 38 38 37 36 36 37 38 38 39 40 41 42 44 45 47 49 51 53 55 56 58 59 60 61 62 63 64 65 65 65 66 67 68 69 69 70 69
29 30 32 34 35 37 38 33 32 34 34 35 35 34 33 33 34 35 36 37 39 40 41 43 44 46 48 49 51 53 55 57 59 60 61 62 63 64 65 66 67 67 68 68 69 70 71 71 71
32 31 32 33 34 35 37 35 32 33 35 35 33 32 32 33 34 36 37 38 40 41 42 43 45 46 48 49 51 52 54 56 57 59 60 61 62 64 65 66 67 68 68 69 69 70 70 70 70
Wind_Direction
94 99 106 114 125 128 90 72 62 165 207 213 217 217 213 222 269 287 296 300 297 296 294 293 293 293 293 293 293 292 292 292 292 292 292 293 293 293 293 292 291 290 288 286 284 283 282 281 280
91 94 99 104 111 107 90 89 94 103 126 154 175 193 202 240 280 293 296 299 297 295 294 293 294 294 295 295 295 294 294 294 294 294 295 295 296 295 295 294 293 291 289 287 285 284 283 282 281
89 91 97 101 103 93 96 96 96 108 127 183 234 262 275 281 286 287 290 291 291 291 292 293 294 295 296 296 296 296 295 296 296 298 299 300 301 300 299 297 296 294 292 290 288 287 286 285 284
79 86 93 99 95 95 100 97 90 253 265 267 271 275 282 283 284 285 285 285 286 288 290 291 292 293 294 294 294 295 297 298 300 301 302 303 302 302 301 300 299 297 295 293 292 291 289 288 287
54 51 51 68 45 49 131 261 272 274 276 277 278 278 280 281 281 283 283 283 284 285 286 288 289 290 291 293 294 296 298 300 303 304 306 307 307 306 306 304 303 302 300 299 297 295 293 292 290
359 346 329 320 313 300 281 274 276 279 281 281 282 283 282 281 281 281 282 282 283 284 283 284 286 287 288 289 291 294 298 302 305 307 309 310 310 311 310 309 308 306 305 303 301 300 298 296 294
329 320 313 308 304 293 292 290 283 283 283 283 283 283 284 282 283 282 283 283 283 282 281 281 282 282 283 286 289 294 298 303 306 309 311 314 315 315 314 313 311 309 307 306 304 302 301 299 297
318 312 307 302 298 292 294 291 288 286 285 285 283 284 285 280 284 283 283 282 281 280 279 279 280 279 281 284 289 294 299 304 308 311 314 316 317 317 316 315 314 312 311 309 307 305 303 301 299
323 314 307 303 298 294 296 293 290 289 286 284 284 284 281 280 283 283 282 281 279 278 277 276 276 277 279 283 288 292 296 302 306 310 312 313 314 315 315 315 314 313 312 310 309 307 306 304 302
326 318 311 307 302 298 297 295 291 288 287 283 284 284 281 279 281 281 280 278 276 275 274 273 272 275 278 282 285 289 293 298 302 304 306 307 308 309 309 309 309 309 308 308 307 307 306 305 304
324 319 317 312 307 301 297 294 291 287 282 284 283 280 280 280 280 280 278 276 274 273 273 273 274 275 277 280 283 286 289 293 295 297 299 300 301 302 302 303 303 303 303 304 304 304 304 304 304
322 319 319 316 312 307 303 294 289 285 283 285 279 277 276 278 277 277 277 275 274 273 273 275 276 276 277 278 280 283 286 288 291 293 294 296 297 298 298 299 299 299 300 300 300 301 302 302 302
317 317 316 316 315 311 306 298 291 286 288 285 281 280 277 276 276 277 276 274 273 273 274 275 275 275 276 277 278 281 283 285 288 290 291 293 294 295 296 297 297 297 298 298 298 298 299 300 300
309 311 310 312 312 310 306 299 294 291 289 286 284 282 280 276 276 277 276 275 274 273 273 274 274 274 274 275 276 279 281 283 285 287 288 289 290 292 293 294 295 296 297 297 298 298 298 299 299
300 304 307 308 308 308 305 299 295 296 293 290 287 284 283 281 279 277 276 276 276 274 274 274 273 274 274 274 275 277 278 280 282 284 286 287 288 289 291 292 294 295 296 297 297 297 298 298 298
295 298 301 302 304 307 305 300 297 299 300 296 291 288 285 283 282 280 278 277 277 277 276 275 274 274 273 273 274 275 276 278 279 281 283 286 287 289 290 292 293 294 295 296 296 297 297 298 298
291 294 298 300 302 304 304 302 300 304 307 305 300 295 291 287 283 281 281 280 279 278 276 275 274 273 273 272 273 274 275 276 277 279 282 285 287 289 290 291 293 294 295 295 296 297 297 297 297
291 294 296 298 301 301 300 298 299 304 307 306 305 302 299 295 291 286 284 282 281 279 277 275 273 272 272 272 273 274 275 275 277 280 283 285 287 288 290 292 293 294 294 294 295 296 296 296 297
290 292 293 296 299 301 302 300 300 303 305 306 307 307 305 302 298 294 290 287 284 282 280 278 275 274 274 274 274 275 276 277 280 282 284 285 285 287 290 292 292 293 294 294 295 295 296 296 296
290 292 293 295 298 299 300 300 301 303 306 307 307 308 308 306 304 300 297 292 289 285 283 281 279 277 277 277 276 277 278 279 281 282 282 283 284 287 289 291 292 292 293 293 294 294 295 295 296
293 294 295 296 298 301 301 302 301 301 304 306 307 308 308 307 306 304 300 296 292 289 286 284 283 281 280 280 279 279 279 279 280 281 281 283 285 287 288 289 290 291 291 292 293 293 294 295 296
296 297 299 300 301 304 304 308 307 305 306 308 308 308 309 309 307 305 302 298 295 292 289 286 284 283 281 281 281 280 280 281 281 281 282 283 285 286 287 288 289 290 290 291 292 293 294 295 296
299 300 301 302 304 306 307 308 309 305 307 308 308 309 309 309 308 306 302 299 296 293 290 288 286 284 283 282 282 282 282 281 281 281 282 283 283 284 286 287 288 289 289 290 291 292 293 295 296
301 302 303 303 304 304 306 308 311 306 309 308 308 309 310 310 309 305 302 299 297 294 292 290 288 286 285 284 283 283 282 282 282 282 283 283 283 284 285 286 287 288 289 290 291 292 293 294 295
303 305 305 306 308 309 312 314 314 308 307 305 306 308 308 308 306 303 300 298 297 295 294 292 290 288 287 286 285 284 283 283 283 283 284 284 284 285 285 285 286 287 288 289 290 291 293 294 295
302 305 306 308 309 308 311 312 312 307 304 303 304 305 305 306 305 302 300 299 298 297 295 293 292 290 288 287 286 285 284 284 284 284 285 285 285 285 285 285 286 286 287 288 289 290 292 293 294
303 304 305 305 305 304 306 306 305 303 302 303 304 306 308 310 308 305 303 301 300 298 296 294 292 290 289 287 287 286 285 285 285 285 285 285 285 285 286 286 286 286 287 287 289 290 291 293 294
301 303 304 304 304 305 306 310 313 311 308 306 307 310 314 313 310 307 305 302 300 298 296 294 293 291 289 287 286 286 285 285 284 284 284 285 285 285 285 285 286 286 287 287 288 289 291 292 293
297 299 300 301 301 302 304 309 312 310 308 307 311 316 315 311 309 308 306 305 303 301 299 298 296 295 294 292 291 289 288 287 287 286 285 285 284 284 284 285 285 286 287 288 289 290 291 291 292
297 298 299 299 299 301 304 309 312 310 309 312 317 318 316 314 313 313 312 311 310 308 307 305 304 302 300 299 297 295 294 292 291 290 288 288 287 286 286 286 286 287 288 289 289 290 290 291 291
Height
5862 5862 5862 5863 5864 5864 5863 5864 5864 5865 5866 5866 5867 5867 5867 5868 5869 5872 5870 5869 5870 5870 5870 5870 5870 5870 5870 5870 5869 5869 5869 5868 5868 5868 5867 5867 5867 5867 5866 5866 5866 5866 5866 5866 5866 5866 5866 5866 5867
5864 5864 5864 5865 5865 5864 5864 5864 5865 5866 5867 5867 5867 5867 5867 5868 5868 5868 5868 5868 5868 5868 5868 5868 5868 5868 5868 5868 5867 5867 5866 5866 5866 5865 5865 5865 5865 5864 5864 5864 5864 5864 5864 5864 5863 5863 5863 5863 5863
5865 5865 5866 5866 5866 5865 5865 5865 5866 5867 5867 5867 5867 5867 5867 5868 5867 5867 5867 5867 5867 5867 5867 5867 5866 5866 5866 5865 5865 5865 5864 5864 5864 5863 5863 5862 5862 5862 5862 5861 5861 5861 5861 5861 5861 5860 5860 5860 5860
5867 5867 5867 5867 5866 5865 5866 5866 5867 5868 5868 5867 5867 5867 5867 5867 5866 5866 5866 5865 5865 5865 5865 5865 5864 5864 5864 5863 5863 5863 5862 5862 5861 5861 5861 5860 5860 5860 5859 5859 5858 5858 5858 5858 5857 5857 5857 5856 5856
5868 5868 5868 5867 5866 5866 5866 5866 5867 5867 5867 5867 5866 5866 5866 5865 5865 5864 5864 5864 5864 5864 5863 5863 5862 5862 5861 5861 5861 5860 5860 5860 5859 5859 5858 5858 5857 5857 5857 5856 5855 5855 5854 5854 5854 5853 5853 5853 5852
5869 5868 5868 5867 5866 5866 5865 5866 5866 5866 5866 5866 5865 5864 5865 5863 5863 5863 5862 5862 5862 5862 5861 5861 5861 5860 5860 5859 5859 5859 5858 5858 5857 5857 5856 5855 5855 5854 5854 5853 5852 5852 5851 5850 5850 5849 5849 5848 5847
5869 5868 5867 5866 5865 5865 5865 5865 5864 5864 5864 5864 5863 5862 5863 5861 5861 5860 5860 5860 5860 5859 5859 5859 5859 5858 5858 5857 5857 5857 5856 5856 5855 5854 5854 5853 5852 5851 5851 5850 5849 5849 5848 5847 5846 5845 5844 5843 5842
5868 5868 5866 5865 5864 5864 5863 5863 5863 5862 5862 5862 5861 5861 5861 5859 5859 5858 5858 5857 5857 5857 5857 5857 5856 5856 5856 5856 5855 5855 5854 5853 5853 5852 5851 5850 5849 5849 5848 5847 5846 5845 5844 5843 5842 5841 5840 5838 5837
5867 5867 5865 5864 5863 5863 5862 5862 5861 5861 5860 5859 5858 5858 5859 5858 5856 5856 5856 5855 5855 5855 5855 5855 5854 5854 5854 5853 5853 5852 5852 5851 5850 5850 5849 5848 5847 5846 5845 5844 5843 5842 5841 5840 5839 5837 5836 5834 5833
5866 5865 5864 5863 5862 5861 5860 5860 5859 5859 5857 5857 5856 5856 5855 5855 5854 5854 5853 5853 5853 5852 5852 5852 5852 5852 5851 5851 5850 5850 5849 5848 5848 5847 5846 5845 5844 5843 5842 5841 5840 5839 5837 5836 5835 5833 5832 5830 5828
5864 5863 5862 5861 5860 5859 5858 5857 5856 5856 5855 5854 5854 5853 5853 5852 5851 5851 5850 5850 5850 5850 5849 5849 5849 5849 5848 5848 5847 5847 5846 5845 5845 5844 5843 5842 5841 5840 5839 5837 5836 5835 5833 5832 5830 5828 5826 5824 5822
5863 5861 5860 5859 5858 5857 5856 5855 5854 5853 5852 5852 5851 5850 5850 5849 5848 5848 5847 5847 5847 5846 5846 5846 5845 5845 5845 5845 5844 5843 5843 5842 5841 5840 5839 5838 5837 5836 5834 5833 5831 5830 5828 5826 5824 5822 5820 5818 5816
5860 5859 5858 5857 5856 5855 5854 5852 5851 5850 5849 5848 5847 5846 5846 5846 5845 5844 5844 5844 5843 5843 5842 5842 5842 5841 5841 5840 5840 5839 5838 5837 5836 5835 5834 5833 5831 5830 5829 5827 5826 5824 5822 5820 5818 5816 5813 5811 5808
5858 5857 5856 5854 5853 5852 5851 5848 5847 5847 5846 5845 5844 5843 5842 5842 5841 5841 5840 5839 5839 5839 5838 5837 5837 5836 5836 5835 5835 5834 5833 5832 5831 5830 5828 5827 5825 5824 5822 5821 5819 5817 5815 5812 5810 5807 5805 5802 5799
5855 5854 5853 5852 5851 5849 5848 5846 5843 5843 5843 5841 5840 5839 5839 5838 5837 5837 5836 5835 5834 5834 5833 5833 5832 5831 5830 5829 5829 5828 5827 5826 5825 5823 5821 5820 5818 5817 5815 5813 5811 5808 5806 5803 5801 5798 5795 5792 5789
5851 5850 5850 5850 5847 5846 5846 5843 5839 5839 5839 5838 5836 5835 5834 5833 5832 5831 5831 5830 5829 5829 5828 5827 5826 5825 5824 5823 5822 5821 5820 5819 5818 5816 5814 5812 5810 5809 5807 5805 5802 5800 5797 5794 5791 5788 5784 5781 5778
5847 5847 5845 5845 5844 5842 5841 5839 5836 5834 5834 5833 5831 5830 5829 5828 5827 5826 5825 5824 5823 5822 5821 5821 5819 5818 5817 5816 5814 5814 5813 5812 5810 5808 5806 5804 5801 5799 5797 5795 5793 5790 5787 5783 5780 5776 5773 5770 5766
5843 5842 5840 5839 5839 5838 5836 5835 5833 5831 5830 5828 5826 5825 5824 5822 5821 5820 5819 5818 5816 5815 5814 5813 5812 5810 5809 5808 5807 5805 5804 5803 5801 5799 5798 5795 5792 5789 5787 5785 5782 5779 5776 5772 5768 5764 5760 5756 5753
5837 5837 5836 5835 5834 5834 5832 5830 5828 5827 5826 5824 5822 5820 5818 5817 5814 5813 5812 5811 5809 5808 5806 5805 5804 5802 5801 5800 5799 5797 5796 5794 5793 5791 5789 5786 5782 5779 5775 5773 5770 5767 5764 5760 5755 5751 5747 5743 5738
5833 5833 5832 5831 5830 5830 5828 5825 5823 5822 5821 5819 5817 5815 5813 5811 5809 5807 5805 5804 5802 5800 5798 5797 5796 5795 5793 5791 5790 5789 5787 5786 5784 5782 5779 5775 5772 5768 5765 5761 5758 5754 5750 5747 5742 5737 5733 5729 5724
5829 5829 5828 5828 5827 5826 5825 5822 5818 5817 5816 5814 5812 5810 5808 5806 5804 5801 5799 5797 5795 5793 5791 5789 5787 5786 5785 5782 5781 5779 5777 5776 5774 5771 5767 5764 5760 5757 5753 5749 5744 5740 5736 5733 5728 5723 5719 5714 5710
5826 5825 5824 5823 5822 5822 5820 5818 5813 5809 5809 5809 5807 5805 5803 5800 5798 5795 5792 5790 5788 5785 5783 5780 5778 5776 5775 5772 5771 5768 5767 5765 5763 5759 5755 5752 5748 5744 5740 5736 5731 5726 5722 5718 5713 5709 5704 5699 5694
5821 5820 5819 5818 5817 5817 5815 5814 5812 5804 5802 5801 5800 5799 5797 5794 5792 5788 5785 5783 5780 5777 5775 5772 5769 5767 5764 5762 5760 5757 5755 5752 5749 5745 5742 5739 5735 5730 5726 5722 5717 5712 5707 5703 5698 5693 5689 5684 5679
5817 5816 5815 5813 5812 5812 5811 5809 5807 5801 5797 5794 5792 5792 5790 5788 5785 5781 5778 5775 5772 5769 5766 5763 5760 5757 5754 5751 5748 5745 5742 5738 5735 5731 5728 5724 5720 5717 5712 5707 5702 5697 5692 5687 5683 5678 5673 5669 5664
5812 5812 5810 5808 5806 5805 5804 5803 5802 5796 5792 5789 5786 5784 5782 5780 5777 5773 5770 5767 5764 5760 5757 5754 5750 5747 5744 5740 5736 5733 5729 5725 5721 5717 5713 5709 5705 5701 5697 5692 5687 5682 5677 5672 5667 5662 5658 5653 5648
5808 5807 5805 5802 5800 5799 5798 5798 5796 5790 5786 5782 5779 5776 5774 5772 5769 5765 5761 5758 5754 5751 5747 5743 5739 5735 5731 5727 5723 5719 5715 5711 5707 5702 5698 5693 5689 5685 5680 5676 5672 5667 5662 5657 5651 5646 5642 5637 5632
5802 5801 5799 5797 5794 5792 5792 5792 5790 5785 5779 5774 5770 5767 5765 5763 5759 5755 5751 5748 5744 5740 5736 5732 5728 5723 5719 5714 5710 5706 5701 5697 5692 5688 5683 5678 5673 5668 5663 5659 5655 5651 5646 5641 5635 5630 5626 5620 5615
5797 5795 5793 5790 5786 5783 5782 5782 5780 5775 5771 5767 5762 5759 5757 5753 5749 5745 5741 5737 5733 5729 5725 5720 5716 5711 5707 5702 5697 5692 5687 5682 5677 5673 5668 5663 5657 5652 5647 5642 5637 5633 5629 5624 5618 5613 5609 5603 5598
5792 5790 5786 5783 5780 5776 5774 5777 5773 5767 5763 5759 5756 5753 5749 5745 5741 5737 5732 5728 5723 5719 5714 5710 5705 5700 5695 5690 5684 5679 5674 5668 5663 5657 5652 5647 5642 5636 5631 5626 5621 5616 5611 5606 5601 5596 5591 5585 5580
5783 5781 5779 5776 5773 5769 5765 5768 5764 5759 5754 5751 5749 5745 5741 5737 5733 5728 5724 5719 5714 5709 5704 5699 5694 5689 5683 5677 5672 5666 5660 5654 5648 5643 5637 5631 5626 5620 5615 5609 5604 5599 5594 5588 5583 5578 5572 5567 5562